Weather History for Saranac Lake, NY

Change the Weather History Date:

Sunday, December 15, 2013

  Actual Average Record
Temperature  
Mean Temperature 17 °F 19 °F  
Max Temperature 24 °F 29 °F 52 °F (1975)
Min Temperature 10 °F 9 °F -22 °F (1989)
Degree Days  
Heating Degree Days 48 46  
Month to date heating degree days 697 646  
Since 1 July heating degree days 3083 2921  
Moisture  
Dew Point 14 °F    
Average Humidity 87    
Maximum Humidity 92    
Minimum Humidity 81    
Precipitation  
Precipitation 0.17 in 0.07 in 0.90 in (1951)
Month to date precipitation 0.53 1.26  
Year to date precipitation 39.38 36.49  
Sea Level Pressure  
Sea Level Pressure 29.59 in    
Wind  
Wind Speed 7 mph (SW)    
Max Wind Speed 21 mph    
Max Gust Speed 28 mph    
Visibility 3 miles    
Events Fog , Snow    
T = Trace of Precipitation, MM = Missing Value Source: NWS Daily Summary

Daily Weather History Graph

Daily Weather History Graph

Search for Another Location

Airport:

Trip Planner

Search our weather history database for the weather conditions in past years. The results will help you decide how hot, cold, wet, or windy it might be!

Date:

Astronomy

Dec. 15, 2013 Rise Set
Actual Time 7:26 AM EST 4:18 PM EST
Civil Twilight 6:52 AM EST 4:51 PM EST
Nautical Twilight 6:16 AM EST 5:28 PM EST
Astronomical Twilight 5:40 AM EST 6:03 PM EST
Moon 3:23 PM EST (12/15) 5:37 AM EST (12/15)
Length of Visible Light 9h 58m
Length of Day
8h 51m
Waxing Gibbous, 97% of the Moon is Illuminated
Dec 15
Waxing Gibbous
Dec 17
Full
Dec 25
Last Quarter
Jan 1
New
Jan 7
First Quarter

Hourly Weather History & Observations

Time (EST) Temp. Windchill Dew Point Humidity Pressure Visibility Wind Dir Wind Speed Gust Speed Precip Events Conditions
12:37 AM 12.2 °F 0.7 °F 8.6 °F 85% 29.80 in 3.0 mi East 8.1 mph - 0.00 in Snow Light Snow
12:51 AM 12.9 °F 2.6 °F 10.0 °F 88% 29.89 in 4.0 mi East 6.9 mph - 0.00 in   Overcast
1:07 AM 12.2 °F 6.1 °F 10.4 °F 92% 29.77 in 2.0 mi ENE 3.5 mph - 0.01 in Snow Light Snow
1:14 AM 15.8 °F 8.6 °F 12.2 °F 86% 29.76 in 1.0 mi Variable 4.6 mph - 0.01 in Snow Light Snow
1:24 AM 15.8 °F - 12.2 °F 86% 29.75 in 0.8 mi Calm Calm - 0.02 in Snow Light Snow
1:40 AM 17.6 °F 8.2 °F 15.8 °F 93% 29.73 in 0.5 mi SE 6.9 mph - 0.03 in Fog , Snow Snow
1:47 AM 19.4 °F 11.5 °F 15.8 °F 86% 29.72 in 1.0 mi SE 5.8 mph 17.3 mph 0.03 in Snow Light Snow
1:48 AM 19.0 °F 11.1 °F 15.1 °F 85% 29.83 in 1.0 mi SE 5.8 mph 17.3 mph 0.03 in Snow Light Snow
1:56 AM 19.4 °F 9.5 °F 15.8 °F 86% 29.72 in 1.5 mi SE 8.1 mph - 0.00 in Snow Light Snow
2:07 AM 19.4 °F 11.5 °F 15.8 °F 86% 29.71 in 2.0 mi Variable 5.8 mph - 0.00 in Snow Light Snow
2:29 AM 21.2 °F 10.9 °F 15.8 °F 80% 29.68 in 4.0 mi SE 9.2 mph - 0.00 in   Haze
2:51 AM 21.9 °F 10.4 °F 16.0 °F 78% 29.76 in 8.0 mi ESE 11.5 mph 21.9 mph 0.00 in   Overcast
3:51 AM 23.0 °F 8.7 °F 17.1 °F 78% 29.67 in 7.0 mi SE 18.4 mph 27.6 mph N/A   Overcast
4:07 AM 23.0 °F 11.7 °F 17.6 °F 80% 29.57 in 2.0 mi SE 11.5 mph 19.6 mph 0.00 in Snow Light Snow
4:24 AM 23.0 °F 11.7 °F 19.4 °F 86% 29.57 in 3.0 mi SE 11.5 mph 16.1 mph 0.00 in Snow Light Snow
4:34 AM 23.0 °F 13.1 °F 19.4 °F 86% 29.55 in 5.0 mi SE 9.2 mph 17.3 mph 0.00 in   Overcast
4:51 AM 24.1 °F 16.0 °F 19.0 °F 81% 29.65 in 3.0 mi SSE 6.9 mph - 0.01 in Snow Light Snow
4:57 AM 24.8 °F 16.9 °F 19.4 °F 80% 29.55 in 2.0 mi SSE 6.9 mph - 0.00 in Snow Light Snow
5:05 AM 24.8 °F 17.9 °F 19.4 °F 80% 29.54 in 0.8 mi SE 5.8 mph - 0.01 in Snow Light Snow
5:18 AM 23.0 °F 13.9 °F 21.2 °F 93% 29.54 in 0.8 mi SSE 8.1 mph - 0.02 in Snow Light Snow
5:38 AM 24.8 °F 17.9 °F 21.2 °F 86% 29.52 in 1.2 mi South 5.8 mph - 0.03 in Snow Light Snow
5:51 AM 24.1 °F 17.0 °F 21.0 °F 88% 29.62 in 2.0 mi Variable 5.8 mph - 0.03 in Snow Light Snow
6:05 AM 24.8 °F 17.9 °F 21.2 °F 86% 29.52 in 1.8 mi SE 5.8 mph - 0.00 in Snow Light Snow
6:16 AM 24.8 °F 20.5 °F 21.2 °F 86% 29.53 in 2.5 mi Variable 3.5 mph - 0.00 in Snow Light Snow
6:22 AM 24.8 °F 20.5 °F 21.2 °F 86% 29.53 in 3.0 mi SSE 3.5 mph - 0.00 in Snow Light Snow
6:51 AM 24.1 °F 19.7 °F 21.0 °F 88% 29.60 in 4.0 mi NE 3.5 mph - 0.00 in Snow Light Snow
7:10 AM 23.0 °F 15.8 °F 21.2 °F 93% 29.50 in 2.5 mi NW 5.8 mph - 0.00 in Snow Light Snow
7:34 AM 19.4 °F 9.5 °F 15.8 °F 86% 29.51 in 2.0 mi NW 8.1 mph - 0.00 in Snow Light Snow
7:40 AM 17.6 °F 9.3 °F 15.8 °F 93% 29.51 in 0.8 mi Variable 5.8 mph - 0.01 in Snow Light Snow
7:51 AM 17.1 °F 11.7 °F 15.1 °F 92% 29.62 in 0.5 mi Variable 3.5 mph - 0.02 in Fog , Snow Snow
8:00 AM 17.6 °F 8.2 °F 14.0 °F 86% 29.51 in 0.2 mi NNW 6.9 mph - 0.01 in Fog , Snow Light Snow
8:11 AM 15.8 °F 8.6 °F 12.2 °F 86% 29.52 in 0.5 mi NW 4.6 mph - 0.01 in Fog , Snow Snow
8:51 AM 14.0 °F 8.2 °F 10.9 °F 88% 29.62 in 0.5 mi NNW 3.5 mph - 0.05 in Fog , Snow Snow
9:03 AM 14.0 °F 8.2 °F 10.4 °F 86% 29.51 in 0.8 mi NNW 3.5 mph - 0.00 in Snow Light Snow
9:20 AM 15.8 °F 8.6 °F 12.2 °F 86% 29.51 in 0.5 mi NNW 4.6 mph - 0.01 in Fog , Snow Snow
9:41 AM 15.8 °F - 12.2 °F 86% 29.51 in 1.0 mi Calm Calm - 0.02 in Snow Light Snow
9:51 AM 16.0 °F - 12.9 °F 88% 29.61 in 2.0 mi Calm Calm - 0.02 in Snow Light Snow
10:06 AM 15.8 °F - 12.2 °F 86% 29.51 in 5.0 mi Calm Calm - 0.00 in Snow Light Snow
10:51 AM 18.0 °F - 14.0 °F 84% 29.58 in 9.0 mi Calm Calm - 0.00 in   Overcast
11:04 AM 17.6 °F - 14.0 °F 86% 29.48 in 9.0 mi Calm Calm - N/A   Overcast
11:51 AM 19.0 °F - 15.1 °F 85% 29.55 in 8.0 mi Calm Calm - N/A   Overcast
12:15 PM 19.4 °F - 15.8 °F 86% 29.46 in 6.0 mi Calm Calm - N/A   Overcast
12:42 PM 17.6 °F 10.7 °F 15.8 °F 93% 29.45 in 4.0 mi SW 4.6 mph - N/A   Overcast
12:51 PM 19.0 °F 12.3 °F 15.1 °F 85% 29.53 in 4.0 mi WSW 4.6 mph - N/A   Overcast
1:51 PM 19.9 °F 10.1 °F 17.1 °F 89% 29.54 in 1.5 mi WSW 8.1 mph - 0.01 in Snow Light Snow
2:16 PM 19.4 °F 8.6 °F 15.8 °F 86% 29.47 in 1.0 mi WSW 9.2 mph - 0.00 in Snow Light Snow
2:51 PM 19.0 °F 8.2 °F 15.1 °F 85% 29.55 in 1.8 mi West 9.2 mph 16.1 mph 0.00 in Snow Light Snow
3:05 PM 19.4 °F 9.5 °F 15.8 °F 86% 29.48 in 3.0 mi WSW 8.1 mph - 0.00 in Snow Light Snow
3:33 PM 17.6 °F 6.4 °F 14.0 °F 86% 29.50 in 4.0 mi WSW 9.2 mph 18.4 mph 0.00 in   Overcast
3:51 PM 18.0 °F 6.9 °F 14.0 °F 84% 29.58 in 2.5 mi WSW 9.2 mph - 0.00 in   Overcast
4:04 PM 17.6 °F 7.3 °F 14.0 °F 86% 29.51 in 1.0 mi WSW 8.1 mph - 0.00 in Snow Light Snow
4:15 PM 17.6 °F 7.3 °F 12.2 °F 79% 29.52 in 0.8 mi WSW 8.1 mph 18.4 mph 0.00 in Snow Light Snow
4:28 PM 17.6 °F 7.3 °F 12.2 °F 79% 29.53 in 1.2 mi WSW 8.1 mph - 0.00 in Snow Light Snow
4:39 PM 15.8 °F 0.9 °F 12.2 °F 86% 29.53 in 1.2 mi SW 15.0 mph 20.7 mph 0.00 in Snow Light Snow
4:49 PM 15.8 °F 2.7 °F 10.4 °F 79% 29.53 in 2.0 mi WSW 11.5 mph - 0.00 in Snow Light Snow
4:51 PM 15.1 °F 1.8 °F 10.9 °F 84% 29.60 in 2.5 mi SW 11.5 mph - 0.00 in Snow Light Snow
4:55 PM 15.8 °F 3.4 °F 10.4 °F 79% 29.53 in 3.0 mi SW 10.4 mph - 0.00 in Snow Light Snow
5:26 PM 15.8 °F 5.1 °F 10.4 °F 79% 29.53 in 2.0 mi WSW 8.1 mph - 0.00 in Snow Light Snow
5:51 PM 14.0 °F 2.9 °F 10.9 °F 88% 29.61 in 2.0 mi SW 8.1 mph - 0.00 in Snow Light Snow
6:43 PM 15.8 °F 8.6 °F 12.2 °F 86% 29.54 in 2.5 mi WSW 4.6 mph - 0.00 in Snow Light Snow
6:51 PM 15.1 °F 4.2 °F 12.0 °F 88% 29.61 in 2.5 mi WSW 8.1 mph - 0.00 in Snow Light Snow
7:02 PM 15.8 °F 4.2 °F 12.2 °F 86% 29.54 in 3.0 mi WSW 9.2 mph - 0.00 in Snow Light Snow
7:33 PM 15.8 °F 2.1 °F 12.2 °F 86% 29.56 in 2.5 mi WSW 12.7 mph 20.7 mph 0.00 in Snow Light Snow
7:43 PM 15.8 °F 4.2 °F 12.2 °F 86% 29.55 in 4.0 mi West 9.2 mph 17.3 mph 0.00 in Snow Light Snow
7:51 PM 15.1 °F 3.3 °F 12.0 °F 88% 29.64 in 4.0 mi WSW 9.2 mph - 0.00 in Snow Light Snow
8:01 PM 15.8 °F 2.7 °F 10.4 °F 79% 29.55 in 5.0 mi West 11.5 mph 17.3 mph 0.00 in   Overcast
8:13 PM 15.8 °F 3.4 °F 10.4 °F 79% 29.55 in 3.0 mi WSW 10.4 mph 16.1 mph 0.00 in Snow Light Snow
8:38 PM 12.2 °F 0.7 °F 10.4 °F 92% 29.55 in 5.0 mi SW 8.1 mph - 0.00 in   Overcast
8:51 PM 12.9 °F 1.6 °F 10.0 °F 88% 29.65 in 7.0 mi WSW 8.1 mph - 0.00 in   Overcast
9:51 PM 12.9 °F 0.7 °F 9.0 °F 84% 29.66 in 7.0 mi WSW 9.2 mph - N/A   Overcast
10:45 PM 12.2 °F 4.3 °F 8.6 °F 85% 29.57 in 2.0 mi WSW 4.6 mph - 0.00 in Snow Light Snow
10:51 PM 12.0 °F 5.9 °F 9.0 °F 88% 29.67 in 2.0 mi WSW 3.5 mph - 0.00 in Snow Light Snow
11:13 PM 12.2 °F - 8.6 °F 85% 29.57 in 1.5 mi Calm Calm - 0.00 in Snow Light Snow
11:51 PM 12.0 °F 4.1 °F 9.0 °F 88% 29.66 in 1.5 mi SW 4.6 mph - 0.00 in Snow Light Snow